{"data":{"norad_id":68803,"epoch":"2026-05-25T02:55:23.005920Z","epoch_age_seconds":60484,"freshness":"FRESH","line1":"1 68803U 26089B   26145.12179405  .00208927  00000+0  13677-2 0  9990","line2":"2 68803  97.2845 351.7507 0003369  60.3123 299.8477 15.75185411  5061","mean_motion":15.75185411,"eccentricity":0.0003369,"inclination_deg":97.2845,"raan_deg":351.7507,"arg_perigee_deg":60.3123,"mean_anomaly_deg":299.8477,"bstar":0.0013677,"rev_number":506,"period_min":91.417809607938,"perigee_km":341.8389017584,"apogee_km":346.36834749128,"semimajor_km":6722.2406246248,"source":"CELESTRAK","updated_at":"2026-05-25T13:38:22.039963Z"}}